contact:dominique.lefevre@mio.osupytheas.fr, maurice.libes@osupytheas.fr, didier.mallarino@osupytheas.fr
Project:EMSO http://www.emso-fr.org/EMSO-France
Depth: 2436.0 m
Title:EMSO Ligure Ouest : Data MII capteur MICROCAT
DateTime_Computer,Latitude,Longitude,Temperature,Conductivity,Pressure,DateTime_Instrument
DateTime_Computer,Latitude,Longitude,degC,S m-1,dbar,DateTime_Instrument
2021-10-14T00:02:20Z,42.805,6.029,13.3019,4.60041,2470.45,2021-10-14T02:03:43Z
2021-10-14T00:05:23Z,42.805,6.029,13.3065,4.60048,2470.45,2021-10-14T02:06:46Z
2021-10-14T00:08:26Z,42.805,6.029,13.3026,4.60043,2470.427,2021-10-14T02:09:50Z
2021-10-14T00:11:29Z,42.805,6.029,13.3046,4.60022,2470.45,2021-10-14T02:12:53Z
2021-10-14T00:14:32Z,42.805,6.029,13.3018,4.60050,2470.427,2021-10-14T02:15:56Z
2021-10-14T00:17:36Z,42.805,6.029,13.3040,4.60039,2470.427,2021-10-14T02:18:59Z
2021-10-14T00:20:39Z,42.805,6.029,13.3051,4.60041,2470.413,2021-10-14T02:22:02Z
2021-10-14T00:23:42Z,42.805,6.029,13.3046,4.60044,2470.45,2021-10-14T02:25:05Z
2021-10-14T00:26:45Z,42.805,6.029,13.3039,4.60043,2470.413,2021-10-14T02:28:08Z
2021-10-14T00:29:48Z,42.805,6.029,13.3039,4.60046,2470.413,2021-10-14T02:31:11Z
2021-10-14T00:32:51Z,42.805,6.029,13.3029,4.60046,2470.413,2021-10-14T02:34:15Z
2021-10-14T00:35:54Z,42.805,6.029,13.3041,4.60058,2470.437,2021-10-14T02:37:18Z
2021-10-14T00:38:57Z,42.805,6.029,13.3052,4.60048,2470.474,2021-10-14T02:40:21Z
2021-10-14T00:42:01Z,42.805,6.029,13.3029,4.60090,2470.45,2021-10-14T02:43:24Z
2021-10-14T00:45:04Z,42.805,6.029,13.3058,4.60030,2470.45,2021-10-14T02:46:27Z
2021-10-14T00:48:07Z,42.805,6.029,13.3016,4.60040,2470.437,2021-10-14T02:49:30Z
2021-10-14T00:51:10Z,42.805,6.029,13.3034,4.60043,2470.45,2021-10-14T02:52:33Z
2021-10-14T00:54:13Z,42.805,6.029,13.3025,4.60025,2470.413,2021-10-14T02:55:36Z
2021-10-14T00:57:16Z,42.805,6.029,13.3027,4.60039,2470.427,2021-10-14T02:58:40Z
2021-10-14T01:00:19Z,42.805,6.029,13.3034,4.60039,2470.413,2021-10-14T03:01:43Z
2021-10-14T01:03:22Z,42.805,6.029,13.3043,4.60037,2470.437,2021-10-14T03:04:46Z
2021-10-14T01:06:26Z,42.805,6.029,13.3048,4.60040,2470.45,2021-10-14T03:07:49Z
2021-10-14T01:09:29Z,42.805,6.029,13.3029,4.60039,2470.437,2021-10-14T03:10:52Z
2021-10-14T01:12:32Z,42.805,6.029,13.3034,4.60038,2470.45,2021-10-14T03:13:55Z
2021-10-14T01:15:35Z,42.805,6.029,13.3026,4.60066,2470.413,2021-10-14T03:16:58Z
2021-10-14T01:18:38Z,42.805,6.029,13.3012,4.60040,2470.46,2021-10-14T03:20:01Z
2021-10-14T01:21:41Z,42.805,6.029,13.3028,4.60036,2470.437,2021-10-14T03:23:05Z
2021-10-14T01:24:44Z,42.805,6.029,13.3022,4.60033,2470.45,2021-10-14T03:26:08Z
2021-10-14T01:27:47Z,42.805,6.029,13.3025,4.60031,2470.413,2021-10-14T03:29:11Z
2021-10-14T01:30:51Z,42.805,6.029,13.3028,4.60036,2470.427,2021-10-14T03:32:14Z
2021-10-14T01:33:54Z,42.805,6.029,13.3056,4.60040,2470.45,2021-10-14T03:35:17Z
2021-10-14T01:36:57Z,42.805,6.029,13.3029,4.60039,2470.39,2021-10-14T03:38:20Z
2021-10-14T01:40:00Z,42.805,6.029,13.3029,4.60035,2470.427,2021-10-14T03:41:23Z
2021-10-14T01:43:03Z,42.805,6.029,13.3028,4.60043,2470.413,2021-10-14T03:44:26Z
2021-10-14T01:46:06Z,42.805,6.029,13.3019,4.60049,2470.45,2021-10-14T03:47:30Z
2021-10-14T01:49:09Z,42.805,6.029,13.3014,4.60040,2470.437,2021-10-14T03:50:33Z
2021-10-14T01:52:12Z,42.805,6.029,13.3031,4.60040,2470.437,2021-10-14T03:53:36Z
2021-10-14T01:55:16Z,42.805,6.029,13.3028,4.60039,2470.427,2021-10-14T03:56:39Z
2021-10-14T01:58:19Z,42.805,6.029,13.3022,4.60039,2470.427,2021-10-14T03:59:42Z
2021-10-14T02:01:22Z,42.805,6.029,13.3026,4.60039,2470.413,2021-10-14T04:02:45Z
2021-10-14T02:04:25Z,42.805,6.029,13.3019,4.60022,2470.437,2021-10-14T04:05:48Z
2021-10-14T02:07:28Z,42.805,6.029,13.3026,4.60036,2470.437,2021-10-14T04:08:51Z
2021-10-14T02:10:31Z,42.805,6.029,13.3031,4.60028,2470.45,2021-10-14T04:11:55Z
2021-10-14T02:13:34Z,42.805,6.029,13.3027,4.60033,2470.46,2021-10-14T04:14:58Z
2021-10-14T02:16:37Z,42.805,6.029,13.3021,4.60035,2470.427,2021-10-14T04:18:01Z
2021-10-14T02:19:41Z,42.805,6.029,13.3024,4.60031,2470.45,2021-10-14T04:21:04Z
2021-10-14T02:22:44Z,42.805,6.029,13.3019,4.60036,2470.413,2021-10-14T04:24:07Z
2021-10-14T02:25:47Z,42.805,6.029,13.3018,4.60033,2470.437,2021-10-14T04:27:10Z
2021-10-14T02:28:50Z,42.805,6.029,13.3019,4.60033,2470.427,2021-10-14T04:30:13Z
2021-10-14T02:31:53Z,42.805,6.029,13.3029,4.60034,2470.437,2021-10-14T04:33:16Z
2021-10-14T02:34:56Z,42.805,6.029,13.3021,4.60033,2470.413,2021-10-14T04:36:20Z
2021-10-14T02:37:59Z,42.805,6.029,13.3028,4.60038,2470.45,2021-10-14T04:39:23Z
2021-10-14T02:41:02Z,42.805,6.029,13.3017,4.60040,2470.474,2021-10-14T04:42:26Z
2021-10-14T02:44:06Z,42.805,6.029,13.3029,4.60029,2470.46,2021-10-14T04:45:29Z
2021-10-14T02:47:09Z,42.805,6.029,13.3028,4.60053,2470.45,2021-10-14T04:48:32Z
2021-10-14T02:50:12Z,42.805,6.029,13.3018,4.60040,2470.39,2021-10-14T04:51:35Z
2021-10-14T02:53:15Z,42.805,6.029,13.3025,4.60047,2470.46,2021-10-14T04:54:38Z
2021-10-14T02:56:18Z,42.805,6.029,13.3024,4.60036,2470.437,2021-10-14T04:57:41Z
2021-10-14T02:59:21Z,42.805,6.029,13.3021,4.60033,2470.474,2021-10-14T05:00:45Z
2021-10-14T03:02:24Z,42.805,6.029,13.3021,4.60039,2470.413,2021-10-14T05:03:48Z
2021-10-14T03:05:27Z,42.805,6.029,13.3011,4.60045,2470.437,2021-10-14T05:06:51Z
2021-10-14T03:08:31Z,42.805,6.029,13.3021,4.60026,2470.427,2021-10-14T05:09:54Z
2021-10-14T03:11:34Z,42.805,6.029,13.3014,4.60029,2470.474,2021-10-14T05:12:57Z
2021-10-14T03:14:37Z,42.805,6.029,13.3020,4.60036,2470.45,2021-10-14T05:16:00Z
2021-10-14T03:17:40Z,42.805,6.029,13.3011,4.60026,2470.45,2021-10-14T05:19:03Z
2021-10-14T03:20:43Z,42.805,6.029,13.3011,4.60033,2470.413,2021-10-14T05:22:06Z
2021-10-14T03:23:46Z,42.805,6.029,13.3021,4.60029,2470.404,2021-10-14T05:25:10Z
2021-10-14T03:26:49Z,42.805,6.029,13.3015,4.60041,2470.413,2021-10-14T05:28:13Z
2021-10-14T03:29:52Z,42.805,6.029,13.3020,4.60025,2470.413,2021-10-14T05:31:16Z
2021-10-14T03:32:56Z,42.805,6.029,13.3012,4.60041,2470.437,2021-10-14T05:34:19Z
2021-10-14T03:35:59Z,42.805,6.029,13.3013,4.60045,2470.437,2021-10-14T05:37:22Z
2021-10-14T03:39:02Z,42.805,6.029,13.3024,4.60028,2470.413,2021-10-14T05:40:25Z
2021-10-14T03:42:05Z,42.805,6.029,13.3014,4.60035,2470.39,2021-10-14T05:43:28Z
2021-10-14T03:45:08Z,42.805,6.029,13.3014,4.60037,2470.413,2021-10-14T05:46:31Z
2021-10-14T03:48:11Z,42.805,6.029,13.3020,4.60029,2470.427,2021-10-14T05:49:35Z
2021-10-14T03:51:14Z,42.805,6.029,13.3011,4.60029,2470.413,2021-10-14T05:52:38Z
2021-10-14T03:54:17Z,42.805,6.029,13.3020,4.60037,2470.427,2021-10-14T05:55:41Z
2021-10-14T03:57:21Z,42.805,6.029,13.3032,4.60042,2470.404,2021-10-14T05:58:44Z
2021-10-14T04:00:24Z,42.805,6.029,13.3001,4.60035,2470.427,2021-10-14T06:01:47Z
2021-10-14T04:03:27Z,42.805,6.029,13.3023,4.60037,2470.427,2021-10-14T06:04:50Z
2021-10-14T04:06:30Z,42.805,6.029,13.3002,4.60052,2470.39,2021-10-14T06:07:53Z
2021-10-14T04:09:33Z,42.805,6.029,13.3015,4.60034,2470.413,2021-10-14T06:10:56Z
2021-10-14T04:12:36Z,42.805,6.029,13.3002,4.60032,2470.413,2021-10-14T06:13:59Z
2021-10-14T04:15:39Z,42.805,6.029,13.3014,4.60025,2470.413,2021-10-14T06:17:03Z
2021-10-14T04:18:42Z,42.805,6.029,13.3009,4.60029,2470.413,2021-10-14T06:20:06Z
2021-10-14T04:21:45Z,42.805,6.029,13.2999,4.60027,2470.413,2021-10-14T06:23:09Z
2021-10-14T04:24:49Z,42.805,6.029,13.3004,4.60034,2470.427,2021-10-14T06:26:12Z
2021-10-14T04:27:52Z,42.805,6.029,13.3001,4.60036,2470.437,2021-10-14T06:29:15Z
2021-10-14T04:30:55Z,42.805,6.029,13.3012,4.60031,2470.404,2021-10-14T06:32:18Z
2021-10-14T04:33:58Z,42.805,6.029,13.3010,4.60038,2470.413,2021-10-14T06:35:21Z
2021-10-14T04:37:01Z,42.805,6.029,13.3008,4.60019,2470.427,2021-10-14T06:38:24Z
2021-10-14T04:40:04Z,42.805,6.029,13.3018,4.60028,2470.427,2021-10-14T06:41:28Z
2021-10-14T04:43:07Z,42.805,6.029,13.3004,4.60041,2470.413,2021-10-14T06:44:31Z
2021-10-14T04:46:10Z,42.805,6.029,13.3006,4.60039,2470.39,2021-10-14T06:47:34Z
2021-10-14T04:49:14Z,42.805,6.029,13.3000,4.60026,2470.413,2021-10-14T06:50:37Z
2021-10-14T04:52:17Z,42.805,6.029,13.3005,4.60035,2470.413,2021-10-14T06:53:40Z
2021-10-14T04:55:20Z,42.805,6.029,13.3004,4.60025,2470.427,2021-10-14T06:56:43Z
2021-10-14T04:58:23Z,42.805,6.029,13.2999,4.60029,2470.427,2021-10-14T06:59:46Z
2021-10-14T05:01:26Z,42.805,6.029,13.2999,4.60031,2470.39,2021-10-14T07:02:49Z
2021-10-14T05:04:29Z,42.805,6.029,13.2997,4.60029,2470.45,2021-10-14T07:05:53Z
2021-10-14T05:07:32Z,42.805,6.029,13.3003,4.60030,2470.39,2021-10-14T07:08:56Z
2021-10-14T05:10:35Z,42.805,6.029,13.3000,4.60034,2470.404,2021-10-14T07:11:59Z
2021-10-14T05:13:39Z,42.805,6.029,13.3002,4.60037,2470.404,2021-10-14T07:15:02Z
2021-10-14T05:16:42Z,42.805,6.029,13.3006,4.60044,2470.423,2021-10-14T07:18:05Z
2021-10-14T05:19:45Z,42.805,6.029,13.3004,4.60033,2470.437,2021-10-14T07:21:08Z
2021-10-14T05:22:48Z,42.805,6.029,13.3011,4.60031,2470.45,2021-10-14T07:24:11Z
2021-10-14T05:25:51Z,42.805,6.029,13.3005,4.60052,2470.413,2021-10-14T07:27:14Z
2021-10-14T05:28:54Z,42.805,6.029,13.3017,4.60043,2470.437,2021-10-14T07:30:18Z
2021-10-14T05:31:57Z,42.805,6.029,13.3006,4.60031,2470.427,2021-10-14T07:33:21Z
2021-10-14T05:35:00Z,42.805,6.029,13.3010,4.60028,2470.45,2021-10-14T07:36:24Z
2021-10-14T05:38:04Z,42.805,6.029,13.3015,4.60037,2470.413,2021-10-14T07:39:27Z
2021-10-14T05:41:07Z,42.805,6.029,13.3012,4.60031,2470.366,2021-10-14T07:42:30Z
2021-10-14T05:44:10Z,42.805,6.029,13.3019,4.60043,2470.39,2021-10-14T07:45:33Z
2021-10-14T05:47:13Z,42.805,6.029,13.3015,4.60043,2470.427,2021-10-14T07:48:36Z
2021-10-14T05:50:16Z,42.805,6.029,13.3011,4.60029,2470.427,2021-10-14T07:51:39Z
2021-10-14T05:53:19Z,42.805,6.029,13.3010,4.60036,2470.413,2021-10-14T07:54:43Z
2021-10-14T05:56:22Z,42.805,6.029,13.3002,4.60032,2470.39,2021-10-14T07:57:46Z
2021-10-14T05:59:25Z,42.805,6.029,13.2991,4.60031,2470.39,2021-10-14T08:00:49Z
2021-10-14T06:02:29Z,42.805,6.029,13.3009,4.60032,2470.413,2021-10-14T08:03:52Z
2021-10-14T06:05:32Z,42.805,6.029,13.2998,4.60026,2470.427,2021-10-14T08:06:55Z
2021-10-14T06:08:35Z,42.805,6.029,13.3004,4.60039,2470.427,2021-10-14T08:09:58Z
2021-10-14T06:11:38Z,42.805,6.029,13.2996,4.60029,2470.404,2021-10-14T08:13:01Z
2021-10-14T06:14:41Z,42.805,6.029,13.2993,4.60038,2470.427,2021-10-14T08:16:04Z
2021-10-14T06:17:44Z,42.805,6.029,13.2997,4.60029,2470.413,2021-10-14T08:19:08Z
2021-10-14T06:20:47Z,42.805,6.029,13.3007,4.60029,2470.413,2021-10-14T08:22:11Z
2021-10-14T06:23:50Z,42.805,6.029,13.2990,4.60018,2470.404,2021-10-14T08:25:14Z
2021-10-14T06:26:54Z,42.805,6.029,13.2997,4.60014,2470.427,2021-10-14T08:28:17Z
2021-10-14T06:29:57Z,42.805,6.029,13.2996,4.60033,2470.413,2021-10-14T08:31:20Z
2021-10-14T06:33:00Z,42.805,6.029,13.3000,4.60033,2470.427,2021-10-14T08:34:23Z
2021-10-14T06:36:03Z,42.805,6.029,13.2995,4.60036,2470.39,2021-10-14T08:37:26Z
2021-10-14T06:39:06Z,42.805,6.029,13.2990,4.60018,2470.404,2021-10-14T08:40:29Z
2021-10-14T06:42:09Z,42.805,6.029,13.2998,4.60022,2470.39,2021-10-14T08:43:33Z
2021-10-14T06:45:12Z,42.805,6.029,13.2996,4.60025,2470.39,2021-10-14T08:46:36Z
2021-10-14T06:48:15Z,42.805,6.029,13.2984,4.60022,2470.404,2021-10-14T08:49:39Z
2021-10-14T06:51:19Z,42.805,6.029,13.2988,4.60017,2470.404,2021-10-14T08:52:42Z
2021-10-14T06:54:22Z,42.805,6.029,13.2991,4.60014,2470.404,2021-10-14T08:55:45Z
2021-10-14T06:57:25Z,42.805,6.029,13.2995,4.60031,2470.404,2021-10-14T08:58:48Z
2021-10-14T07:00:28Z,42.805,6.029,13.2990,4.60021,2470.427,2021-10-14T09:01:51Z
2021-10-14T07:03:31Z,42.805,6.029,13.2990,4.60026,2470.404,2021-10-14T09:04:54Z
2021-10-14T07:06:34Z,42.805,6.029,13.2986,4.60015,2470.404,2021-10-14T09:07:58Z
2021-10-14T07:09:37Z,42.805,6.029,13.2990,4.60021,2470.413,2021-10-14T09:11:01Z
2021-10-14T07:12:40Z,42.805,6.029,13.2990,4.60010,2470.39,2021-10-14T09:14:04Z
2021-10-14T07:15:44Z,42.805,6.029,13.2989,4.60011,2470.39,2021-10-14T09:17:07Z
2021-10-14T07:18:47Z,42.805,6.029,13.2987,4.60011,2470.38,2021-10-14T09:20:10Z
2021-10-14T07:21:50Z,42.805,6.029,13.2991,4.60011,2470.413,2021-10-14T09:23:13Z
2021-10-14T07:24:53Z,42.805,6.029,13.2991,4.60011,2470.39,2021-10-14T09:26:16Z
2021-10-14T07:27:56Z,42.805,6.029,13.2986,4.60011,2470.404,2021-10-14T09:29:19Z
2021-10-14T07:30:59Z,42.805,6.029,13.2982,4.60010,2470.366,2021-10-14T09:32:23Z
2021-10-14T07:34:02Z,42.805,6.029,13.2988,4.60009,2470.39,2021-10-14T09:35:26Z
2021-10-14T07:37:05Z,42.805,6.029,13.2992,4.60009,2470.39,2021-10-14T09:38:29Z
2021-10-14T07:40:08Z,42.805,6.029,13.2986,4.60011,2470.38,2021-10-14T09:41:32Z
2021-10-14T07:43:12Z,42.805,6.029,13.2987,4.60009,2470.413,2021-10-14T09:44:35Z
2021-10-14T07:46:15Z,42.805,6.029,13.2991,4.60007,2470.357,2021-10-14T09:47:38Z
2021-10-14T07:49:18Z,42.805,6.029,13.2986,4.60012,2470.39,2021-10-14T09:50:41Z
2021-10-14T07:52:21Z,42.805,6.029,13.2991,4.60013,2470.413,2021-10-14T09:53:44Z
2021-10-14T07:55:24Z,42.805,6.029,13.2984,4.60009,2470.413,2021-10-14T09:56:47Z
2021-10-14T07:58:27Z,42.805,6.029,13.2986,4.60006,2470.404,2021-10-14T09:59:51Z
2021-10-14T08:01:30Z,42.805,6.029,13.2986,4.60006,2470.357,2021-10-14T10:02:54Z
2021-10-14T08:04:33Z,42.805,6.029,13.2982,4.60006,2470.39,2021-10-14T10:05:57Z
2021-10-14T08:07:37Z,42.805,6.029,13.2988,4.60008,2470.366,2021-10-14T10:09:00Z
2021-10-14T08:10:40Z,42.805,6.029,13.2987,4.60008,2470.404,2021-10-14T10:12:03Z
2021-10-14T08:13:43Z,42.805,6.029,13.2988,4.60005,2470.427,2021-10-14T10:15:06Z
2021-10-14T08:16:46Z,42.805,6.029,13.2986,4.60006,2470.404,2021-10-14T10:18:09Z
2021-10-14T08:19:49Z,42.805,6.029,13.2987,4.60004,2470.366,2021-10-14T10:21:13Z
2021-10-14T08:22:52Z,42.805,6.029,13.2984,4.60006,2470.413,2021-10-14T10:24:16Z
2021-10-14T08:25:55Z,42.805,6.029,13.2986,4.60008,2470.366,2021-10-14T10:27:19Z
2021-10-14T08:28:58Z,42.805,6.029,13.2986,4.60007,2470.413,2021-10-14T10:30:22Z
2021-10-14T08:32:02Z,42.805,6.029,13.2984,4.60006,2470.39,2021-10-14T10:33:25Z
2021-10-14T08:35:05Z,42.805,6.029,13.2990,4.60007,2470.39,2021-10-14T10:36:28Z
2021-10-14T08:38:08Z,42.805,6.029,13.2988,4.60006,2470.39,2021-10-14T10:39:31Z
2021-10-14T08:41:11Z,42.805,6.029,13.2989,4.60006,2470.357,2021-10-14T10:42:34Z
2021-10-14T08:44:14Z,42.805,6.029,13.2987,4.60006,2470.39,2021-10-14T10:45:38Z
2021-10-14T08:47:17Z,42.805,6.029,13.2987,4.60006,2470.413,2021-10-14T10:48:41Z
2021-10-14T08:50:20Z,42.805,6.029,13.2988,4.60007,2470.39,2021-10-14T10:51:44Z
2021-10-14T08:53:24Z,42.805,6.029,13.2986,4.60008,2470.413,2021-10-14T10:54:47Z
2021-10-14T08:56:27Z,42.805,6.029,13.2990,4.60006,2470.404,2021-10-14T10:57:50Z
2021-10-14T08:59:30Z,42.805,6.029,13.2983,4.60006,2470.427,2021-10-14T11:00:53Z
2021-10-14T09:02:33Z,42.805,6.029,13.2982,4.60008,2470.404,2021-10-14T11:03:56Z
2021-10-14T09:05:36Z,42.805,6.029,13.2990,4.60006,2470.427,2021-10-14T11:06:59Z
2021-10-14T09:08:39Z,42.805,6.029,13.2984,4.60006,2470.39,2021-10-14T11:10:03Z
2021-10-14T09:11:42Z,42.805,6.029,13.2986,4.60008,2470.404,2021-10-14T11:13:06Z
2021-10-14T09:14:45Z,42.805,6.029,13.2986,4.60005,2470.427,2021-10-14T11:16:09Z
2021-10-14T09:17:49Z,42.805,6.029,13.2989,4.60007,2470.39,2021-10-14T11:19:12Z
2021-10-14T09:20:52Z,42.805,6.029,13.2990,4.60006,2470.45,2021-10-14T11:22:15Z
2021-10-14T09:23:55Z,42.805,6.029,13.2986,4.60006,2470.413,2021-10-14T11:25:18Z
2021-10-14T09:26:58Z,42.805,6.029,13.2987,4.60006,2470.413,2021-10-14T11:28:21Z
2021-10-14T09:30:01Z,42.805,6.029,13.2990,4.60007,2470.437,2021-10-14T11:31:24Z
2021-10-14T09:33:04Z,42.805,6.029,13.2987,4.60007,2470.413,2021-10-14T11:34:28Z
2021-10-14T09:36:07Z,42.805,6.029,13.2984,4.60009,2470.437,2021-10-14T11:37:31Z
2021-10-14T09:39:10Z,42.805,6.029,13.2986,4.60007,2470.413,2021-10-14T11:40:34Z
2021-10-14T09:42:14Z,42.805,6.029,13.2985,4.60008,2470.366,2021-10-14T11:43:37Z
2021-10-14T09:45:17Z,42.805,6.029,13.2986,4.60006,2470.45,2021-10-14T11:46:40Z
2021-10-14T09:48:20Z,42.805,6.029,13.2988,4.60008,2470.39,2021-10-14T11:49:43Z
2021-10-14T09:51:23Z,42.805,6.029,13.2985,4.60007,2470.413,2021-10-14T11:52:46Z
2021-10-14T09:54:26Z,42.805,6.029,13.2986,4.60006,2470.437,2021-10-14T11:55:50Z
2021-10-14T09:57:29Z,42.805,6.029,13.2986,4.60004,2470.427,2021-10-14T11:58:53Z
2021-10-14T10:00:32Z,42.805,6.029,13.2986,4.60007,2470.413,2021-10-14T12:01:56Z
2021-10-14T10:03:36Z,42.805,6.029,13.2986,4.60008,2470.413,2021-10-14T12:04:59Z
2021-10-14T10:06:39Z,42.805,6.029,13.2989,4.60007,2470.437,2021-10-14T12:08:02Z
2021-10-14T10:09:42Z,42.805,6.029,13.2987,4.60006,2470.437,2021-10-14T12:11:05Z
2021-10-14T10:12:45Z,42.805,6.029,13.2990,4.60009,2470.427,2021-10-14T12:14:08Z
2021-10-14T10:15:48Z,42.805,6.029,13.2989,4.60007,2470.474,2021-10-14T12:17:11Z
2021-10-14T10:18:51Z,42.805,6.029,13.2983,4.60006,2470.437,2021-10-14T12:20:14Z
2021-10-14T10:21:54Z,42.805,6.029,13.2985,4.60005,2470.437,2021-10-14T12:23:18Z
2021-10-14T10:24:57Z,42.805,6.029,13.2988,4.60007,2470.404,2021-10-14T12:26:21Z
2021-10-14T10:28:01Z,42.805,6.029,13.2987,4.60008,2470.437,2021-10-14T12:29:24Z
2021-10-14T10:31:04Z,42.805,6.029,13.2986,4.60006,2470.437,2021-10-14T12:32:27Z
2021-10-14T10:34:07Z,42.805,6.029,13.2986,4.60007,2470.437,2021-10-14T12:35:30Z
2021-10-14T10:37:10Z,42.805,6.029,13.2988,4.60010,2470.413,2021-10-14T12:38:33Z
2021-10-14T10:40:13Z,42.805,6.029,13.2988,4.60007,2470.437,2021-10-14T12:41:36Z
2021-10-14T10:43:16Z,42.805,6.029,13.2991,4.60009,2470.413,2021-10-14T12:44:40Z
2021-10-14T10:46:19Z,42.805,6.029,13.2984,4.60009,2470.437,2021-10-14T12:47:43Z
2021-10-14T10:49:22Z,42.805,6.029,13.2986,4.60009,2470.464,2021-10-14T12:50:46Z
2021-10-14T10:52:26Z,42.805,6.029,13.2991,4.60006,2470.45,2021-10-14T12:53:49Z
2021-10-14T10:55:29Z,42.805,6.029,13.2987,4.60011,2470.437,2021-10-14T12:56:52Z
2021-10-14T10:58:32Z,42.805,6.029,13.2988,4.60006,2470.437,2021-10-14T12:59:55Z
2021-10-14T11:01:35Z,42.805,6.029,13.2985,4.60009,2470.427,2021-10-14T13:02:58Z
2021-10-14T11:04:38Z,42.805,6.029,13.2983,4.60006,2470.474,2021-10-14T13:06:01Z
2021-10-14T11:07:41Z,42.805,6.029,13.2990,4.60008,2470.437,2021-10-14T13:09:05Z
2021-10-14T11:10:44Z,42.805,6.029,13.2984,4.60006,2470.437,2021-10-14T13:12:08Z
2021-10-14T11:13:47Z,42.805,6.029,13.2986,4.60006,2470.474,2021-10-14T13:15:11Z
2021-10-14T11:16:51Z,42.805,6.029,13.2988,4.60011,2470.46,2021-10-14T13:18:14Z
2021-10-14T11:19:54Z,42.805,6.029,13.2987,4.60005,2470.483,2021-10-14T13:21:17Z
2021-10-14T11:22:57Z,42.805,6.029,13.2987,4.60009,2470.497,2021-10-14T13:24:20Z
2021-10-14T11:26:00Z,42.805,6.029,13.2983,4.60009,2470.474,2021-10-14T13:27:23Z
2021-10-14T11:29:03Z,42.805,6.029,13.2988,4.60009,2470.46,2021-10-14T13:30:26Z
2021-10-14T11:32:06Z,42.805,6.029,13.2989,4.60007,2470.46,2021-10-14T13:33:30Z
2021-10-14T11:35:09Z,42.805,6.029,13.2990,4.60006,2470.45,2021-10-14T13:36:33Z
2021-10-14T11:38:12Z,42.805,6.029,13.2990,4.60009,2470.46,2021-10-14T13:39:36Z
2021-10-14T11:41:16Z,42.805,6.029,13.2990,4.60009,2470.483,2021-10-14T13:42:39Z
2021-10-14T11:44:19Z,42.805,6.029,13.2987,4.60014,2470.46,2021-10-14T13:45:42Z
2021-10-14T11:47:22Z,42.805,6.029,13.2992,4.60010,2470.474,2021-10-14T13:48:45Z
2021-10-14T11:50:25Z,42.805,6.029,13.2990,4.60013,2470.46,2021-10-14T13:51:48Z
2021-10-14T11:53:28Z,42.805,6.029,13.2989,4.60016,2470.474,2021-10-14T13:54:51Z
2021-10-14T11:56:31Z,42.805,6.029,13.2990,4.60008,2470.474,2021-10-14T13:57:55Z
2021-10-14T11:59:34Z,42.805,6.029,13.2986,4.60008,2470.46,2021-10-14T14:00:58Z
2021-10-14T12:02:37Z,42.805,6.029,13.2987,4.60011,2470.46,2021-10-14T14:04:01Z
2021-10-14T12:05:41Z,42.805,6.029,13.2987,4.60007,2470.474,2021-10-14T14:07:04Z
2021-10-14T12:08:44Z,42.805,6.029,13.2983,4.60006,2470.52,2021-10-14T14:10:07Z
2021-10-14T12:11:47Z,42.805,6.029,13.2986,4.60008,2470.507,2021-10-14T14:13:10Z
2021-10-14T12:14:50Z,42.805,6.029,13.2982,4.60014,2470.483,2021-10-14T14:16:13Z
2021-10-14T12:17:53Z,42.805,6.029,13.2988,4.60006,2470.483,2021-10-14T14:19:16Z
2021-10-14T12:20:56Z,42.805,6.029,13.2989,4.60009,2470.497,2021-10-14T14:22:20Z
2021-10-14T12:23:59Z,42.805,6.029,13.2986,4.60017,2470.474,2021-10-14T14:25:23Z
2021-10-14T12:27:03Z,42.805,6.029,13.2983,4.60018,2470.483,2021-10-14T14:28:26Z
2021-10-14T12:30:06Z,42.805,6.029,13.2989,4.60014,2470.497,2021-10-14T14:31:29Z
2021-10-14T12:33:09Z,42.805,6.029,13.2990,4.60009,2470.483,2021-10-14T14:34:32Z
2021-10-14T12:36:12Z,42.805,6.029,13.2986,4.60011,2470.46,2021-10-14T14:37:35Z
2021-10-14T12:39:15Z,42.805,6.029,13.2988,4.60007,2470.497,2021-10-14T14:40:38Z
2021-10-14T12:42:18Z,42.805,6.029,13.2990,4.60008,2470.507,2021-10-14T14:43:42Z
2021-10-14T12:45:21Z,42.805,6.029,13.2990,4.60012,2470.483,2021-10-14T14:46:45Z
2021-10-14T12:48:24Z,42.805,6.029,13.2990,4.60014,2470.52,2021-10-14T14:49:48Z
2021-10-14T12:51:28Z,42.805,6.029,13.2990,4.60011,2470.507,2021-10-14T14:52:51Z
2021-10-14T12:54:31Z,42.805,6.029,13.2990,4.60006,2470.507,2021-10-14T14:55:54Z
2021-10-14T12:57:34Z,42.805,6.029,13.2986,4.60006,2470.52,2021-10-14T14:58:57Z
2021-10-14T13:00:37Z,42.805,6.029,13.2988,4.60016,2470.507,2021-10-14T15:02:00Z
2021-10-14T13:03:40Z,42.805,6.029,13.2989,4.60005,2470.46,2021-10-14T15:05:03Z
2021-10-14T13:06:43Z,42.805,6.029,13.2988,4.60005,2470.497,2021-10-14T15:08:07Z
2021-10-14T13:09:46Z,42.805,6.029,13.2986,4.60014,2470.507,2021-10-14T15:11:10Z
2021-10-14T13:12:49Z,42.805,6.029,13.2984,4.60010,2470.52,2021-10-14T15:14:13Z
2021-10-14T13:15:53Z,42.805,6.029,13.2987,4.60009,2470.483,2021-10-14T15:17:16Z
2021-10-14T13:18:56Z,42.805,6.029,13.2990,4.60006,2470.553,2021-10-14T15:20:19Z
2021-10-14T13:21:59Z,42.805,6.029,13.2983,4.60007,2470.52,2021-10-14T15:23:22Z
2021-10-14T13:25:02Z,42.805,6.029,13.2986,4.60005,2470.507,2021-10-14T15:26:25Z
2021-10-14T13:28:05Z,42.805,6.029,13.2990,4.60006,2470.52,2021-10-14T15:29:28Z
2021-10-14T13:31:08Z,42.805,6.029,13.2986,4.60006,2470.553,2021-10-14T15:32:32Z
2021-10-14T13:34:11Z,42.805,6.029,13.2986,4.60007,2470.507,2021-10-14T15:35:35Z
2021-10-14T13:37:14Z,42.805,6.029,13.2987,4.60006,2470.507,2021-10-14T15:38:38Z
2021-10-14T13:40:18Z,42.805,6.029,13.2989,4.60007,2470.507,2021-10-14T15:41:41Z
2021-10-14T13:43:21Z,42.805,6.029,13.2988,4.60010,2470.52,2021-10-14T15:44:44Z
2021-10-14T13:46:24Z,42.805,6.029,13.2993,4.60010,2470.507,2021-10-14T15:47:47Z
2021-10-14T13:49:27Z,42.805,6.029,13.2985,4.60009,2470.497,2021-10-14T15:50:50Z
2021-10-14T13:52:30Z,42.805,6.029,13.2989,4.60008,2470.53,2021-10-14T15:53:53Z
2021-10-14T13:55:33Z,42.805,6.029,13.2991,4.60007,2470.52,2021-10-14T15:56:57Z
2021-10-14T13:58:36Z,42.805,6.029,13.2991,4.60009,2470.483,2021-10-14T16:00:00Z
2021-10-14T14:01:39Z,42.805,6.029,13.2988,4.60010,2470.553,2021-10-14T16:03:03Z
2021-10-14T14:04:43Z,42.805,6.029,13.2983,4.60006,2470.544,2021-10-14T16:06:06Z
2021-10-14T14:07:46Z,42.805,6.029,13.2989,4.60004,2470.53,2021-10-14T16:09:09Z
2021-10-14T14:10:49Z,42.805,6.029,13.2991,4.60009,2470.497,2021-10-14T16:12:12Z
2021-10-14T14:13:52Z,42.805,6.029,13.2986,4.60006,2470.483,2021-10-14T16:15:15Z
2021-10-14T14:16:55Z,42.805,6.029,13.2985,4.60006,2470.507,2021-10-14T16:18:18Z
2021-10-14T14:19:58Z,42.805,6.029,13.2991,4.60009,2470.493,2021-10-14T16:21:22Z
2021-10-14T14:23:01Z,42.805,6.029,13.2987,4.60005,2470.544,2021-10-14T16:24:25Z
2021-10-14T14:26:04Z,42.805,6.029,13.2990,4.60009,2470.497,2021-10-14T16:27:28Z
2021-10-14T14:29:08Z,42.805,6.029,13.2990,4.60016,2470.516,2021-10-14T16:30:31Z
2021-10-14T14:32:11Z,42.805,6.029,13.2988,4.60006,2470.553,2021-10-14T16:33:34Z
2021-10-14T14:35:14Z,42.805,6.029,13.2990,4.60006,2470.53,2021-10-14T16:36:37Z
2021-10-14T14:38:17Z,42.805,6.029,13.2996,4.60006,2470.53,2021-10-14T16:39:40Z
2021-10-14T14:41:20Z,42.805,6.029,13.2991,4.60009,2470.567,2021-10-14T16:42:43Z
2021-10-14T14:44:23Z,42.805,6.029,13.2990,4.60016,2470.53,2021-10-14T16:45:47Z
2021-10-14T14:47:26Z,42.805,6.029,13.2993,4.60011,2470.53,2021-10-14T16:48:50Z
2021-10-14T14:50:29Z,42.805,6.029,13.2990,4.60011,2470.507,2021-10-14T16:51:53Z
2021-10-14T14:53:33Z,42.805,6.029,13.2990,4.60026,2470.53,2021-10-14T16:54:56Z
2021-10-14T14:56:36Z,42.805,6.029,13.2991,4.60028,2470.567,2021-10-14T16:57:59Z
2021-10-14T14:59:39Z,42.805,6.029,13.2993,4.60021,2470.567,2021-10-14T17:01:02Z
2021-10-14T15:02:42Z,42.805,6.029,13.2990,4.60017,2470.507,2021-10-14T17:04:05Z